Retour au catalogue

STARLINK-37257

ActifCommunicationsVLEO
NORAD 68970·PAYLOAD·🇺🇸 United States

Lancé May 1, 2026 depuis Cape Canaveral Space Force Station

Loading…

Prochains Passages (prochaines 24 heures)

TLE

FraisSource: CelesTrak SupGP

Époque: Sep 15, 2026, 03:18 UTC

1 68970C 26099V   26258.13798611 -.00006786  00000+0 -20053-3 0  2584
2 68970  53.1560 100.6823 0001235  87.6359 271.1467 15.34389213    19

Suivez STARLINK-37257 en temps réel avec AllMySat

Download on the App Store